Regional Weather Roundup
Issued by NWS

Home | Current Version | Previous Version | Text Only | Print | Product List | Glossary Off
Versions: 1 2 3 4 5 6 7 8 9 10 11 12 13 14 15 16 17 18 19 20 21 22 23 24 25 26 27

000
ASUS45 KCYS 231310
RWRWY

WYOMING REGIONAL WEATHER ROUNDUP
NATIONAL WEATHER SERVICE CHEYENNE WY
700 AM MDT THU MAR 23 2017

NOTE:  "FAIR" INDICATES FEW OR NO CLOUDS BELOW 12,000 FEET
WITH NO SIGNIFICANT WEATHER AND/OR OBSTRUCTIONS TO VISIBILITY.

WYZ001-231400-
YELLOWSTONE NATIONAL PARK

CITY           SKY/WX    TMP DP  RH WIND       PRES   REMARKS
LK YELLOWSTONE   N/A     26  26 100 VRB3      29.81S
W YELLOWSTONE  NOT AVBL

$$
WYZ002>013-054>058-071-098>099-231400-
NORTHERN WYOMING

CITY           SKY/WX    TMP DP  RH WIND       PRES   REMARKS
JACKSON        CLEAR     32  32 100 N9        29.74F WCI  24
CODY           CLOUDY    45  33  63 N12       29.76S
GREYBULL       CLOUDY    47  40  76 NW6       29.69R
WORLAND        CLOUDY    46  42  86 W7        29.71S
SHERIDAN       LGT RAIN  45  42  89 W8        29.75R
BUFFALO        LGT RAIN  44  37  76 NW15G24   29.74R
GILLETTE       MOCLDY    38  38 100 CALM      29.68S
HULETT         FAIR      41  37  87 CALM      29.71F
NEWCASTLE      FAIR      41  36  81 CALM      29.68F

$$
WYZ014>020-022>026-101>103-231400-
CENTRAL WYOMING

CITY           SKY/WX    TMP DP  RH WIND       PRES   REMARKS
BIG PINEY      LGT SNOW  32  32 100 CALM      29.72F FOG
PINEDALE       CLOUDY    32  32 100 CALM      29.72F
DUBOIS         CLOUDY    32  32 100 CALM      29.73F
LANDER         LGT RAIN  41  38  89 CALM      29.70S
RIVERTON       CLOUDY    41  39  93 SE3       29.72F
CASPER         LGT RAIN  40  39  97 NW6       29.72S
DOUGLAS        FAIR      35  33  92 CALM      29.71S

$$
WYZ021-027>030-104>119-231400-
SOUTHERN WYOMING

CITY           SKY/WX    TMP DP  RH WIND       PRES   REMARKS
EVANSTON       LGT SNOW  32  29  88 NW8       29.72R VSB 3/4 WCI  25
KEMMERER       LGT SNOW  32  32 100 N10       29.72S WCI  24
FORT BRIDGER   LGT RAIN  37  37 100 S3        29.72S
ROCK SPRINGS   MOCLDY    36  33  89 E7        29.69F WCI  30
DIXON            N/A     38  34  84 W3        29.78R
RAWLINS        FAIR      34  30  85 VRB3      29.72F
SARATOGA       FAIR      46  27  46 S14G24    29.74F
LARAMIE        FAIR      27  22  81 SE10      29.75F WCI  17
CHEYENNE       FAIR      38  28  67 NW8       29.73F WCI  32
TORRINGTON     FAIR      36  33  89 NE3       29.67S
PINE BLUFFS    FAIR      32  32 100 SW8G16    29.71F WCI  25

$$




USA.gov is the U.S. government's official web portal to all federal, state and local government web resources and services.